Flag for India Weather past 2 weeks in Lucknow, Uttar Pradesh, India

Now
86 °F

Haze.


Feels Like: 87 °F
Forecast: 61 / 91 °F
Wind: 2 mph from North

Location: Lucknow / Amausi

Current Time: Oct 21, 2014 at 2:20:06 PM

Latest Report: Oct 21, 2014 at 1:00 PM


Visibility: 2 mi

Pressure: 29.98 "Hg

Humidity: 49%

Dew point: 64 °F

Location of LucknowLocation

Historic Weather in Lucknow — Graph

°F

Lucknow temperature yesterday

Maximum temperature yesterday: 88 °F (at 2:30 PM)
Minimum temperature yesterday: 64 °F (at 5:30 AM)
Average temperature yesterday: 77 °F

Past Weeks' High & Low Weather Summary

 TemperatureHumidityPressure
High102 °F (Oct 9, 2:00 PM)100% (Oct 14, 6:00 AM)30.04 "Hg (Oct 14, 6:00 AM)
Low64 °F (Oct 18, 6:00 AM)32% (Oct 12, 1:30 PM)29.56 "Hg (Oct 14, 1:00 PM)
Average80 °F71%29.84 "Hg
* Reported Oct 6 12:30 PM — Oct 21 1:00 PM, Lucknow, Weather by CustomWeather, © 2014

Note: Actual official high and low records may vary slightly from our data, if they occured in-between our weather recording intervals... More about our weather records

Advertising

Lucknow weather history for previous 24 hours

 ConditionsComfort  
Time TempWeatherWind HumidityBarometerVisibility
1:00 PM
Oct 21
86 °FHaze.2 mph49%29.98 "Hg2 mi
12:30 PM84 °FHaze.3 mph51%29.98 "Hg2 mi
12:00 PM84 °FHaze.3 mph51%30.01 "Hg2 mi
11:30 AM84 °FHaze.3 mph51%30.01 "Hg2 mi
10:30 AM77 °FHaze.2 mph69%30.04 "Hg1 mi
10:00 AM77 °FHaze.2 mph69%30.04 "Hg1 mi
9:30 AM75 °FFog.2 mph74%30.04 "Hg1 mi
9:00 AM75 °FFog.No wind74%30.01 "Hg1 mi
8:00 AM70 °FFog.No wind88%30.01 "Hg1 mi
7:30 AM70 °FFog.No wind88%29.98 "Hg1 mi
7:00 AM68 °FFog.No wind88%29.98 "Hg1 mi
6:30 AM68 °FFog.No wind88%29.98 "Hg1 mi
5:30 AM68 °FFog.No wind88%29.95 "Hg1 mi
5:00 AM68 °FFog.No wind88%29.95 "Hg1 mi
3:00 AM68 °FFog.No wind88%29.92 "Hg1 mi
2:00 AM70 °FFog.No wind88%29.92 "Hg1 mi
1:00 AM70 °FFog.No wind88%29.92 "Hg1 mi
12:00 AM70 °FFog.No wind88%29.95 "Hg1 mi
11:00 PM
Oct 20
72 °FHaze.No wind83%29.95 "Hg1 mi
10:00 PM72 °FHaze.No wind83%29.95 "Hg1 mi
9:00 PM72 °FHaze.No wind83%29.95 "Hg2 mi
8:30 PM73 °FHaze.No wind78%29.95 "Hg2 mi
7:30 PM77 °FHaze.No wind65%29.92 "Hg2 mi
7:00 PM77 °FHaze.No wind65%29.92 "Hg2 mi
6:30 PM79 °FHaze.No wind65%29.89 "Hg2 mi
6:00 PM81 °FHaze.No wind58%29.89 "Hg2 mi
5:30 PM82 °FHaze.2 mph55%29.89 "Hg2 mi
5:00 PM84 °FHaze.2 mph51%29.86 "Hg2 mi
4:30 PM86 °FHaze.3 mph46%29.89 "Hg2 mi
3:00 PM88 °FHaze.3 mph43%29.89 "Hg3 mi
2:30 PM88 °FHaze.3 mph43%29.89 "Hg3 mi
2:00 PM86 °FHaze.5 mph46%29.89 "Hg2 mi
Weather by CustomWeather, © 2014

See weather overviewHow to use our weather pages